Regional Weather Roundup
Issued by NWS

Home | Current Version | Previous Version | Graphics & Text | Print | Product List | Glossary On
Versions: 1 2 3 4 5 6 7 8 9 10 11 12 13 14 15 16 17 18 19 20 21 22 23 24 25 26 27
000
ASUS45 KBOI 241010
RWRID

IDAHO REGIONAL WEATHER ROUNDUP
NATIONAL WEATHER SERVICE BOISE ID
400 AM MDT MON JUL 24 2017

NOTE: "FAIR" INDICATES FEW OR NO CLOUDS BELOW 12000 FEET
WITH NO SIGNIFICANT WEATHER AND/OR OBSTRUCTIONS TO VISIBILITY

IDZ012-014-241100-
SOUTHWEST IDAHO


CITY           SKY/WX    TMP DP  RH WIND       PRES   REMARKS
BOISE          CLOUDY    74  41  30 SE3       29.88F
CALDWELL       CLOUDY    69  58  67 NE6       29.87S
MOUNTAIN HOME  MOCLDY    73  42  32 CALM      29.87F
$$

IDZ016-017-241100-
SOUTHCENTRAL IDAHO


CITY           SKY/WX    TMP DP  RH WIND       PRES   REMARKS
BURLEY         MOCLDY    67  47  48 SW5       29.97R
JEROME         MOCLDY    70  45  40 SE5       29.96F
TWIN FALLS     MOCLDY    71  46  40 S9        29.97R
$$

IDZ019>023-241100-
SOUTHEAST IDAHO


CITY           SKY/WX    TMP DP  RH WIND       PRES   REMARKS
IDAHO FALLS    CLEAR     62  46  55 SW8       30.01S
POCATELLO      CLEAR     60  41  49 N6        30.00S
REXBURG        CLEAR     69  41  36 SW9       30.01R
$$

IDZ006-010-011-018-031-032-241100-
CENTRAL IDAHO MOUNTAINS


CITY           SKY/WX    TMP DP  RH WIND       PRES   REMARKS
MCCALL         MOCLDY    56  46  69 CALM      30.05S
HAILEY         PTCLDY    57  36  44 NW13      30.08F
STANLEY          N/A     43  32  65 S5        30.19F
SALMON         NOT AVBL
CHALLIS        CLEAR     58  36  43 CALM      30.05R
$$

IDZ002-004-006-007-026-241100-
NORTHERN IDAHO


CITY           SKY/WX    TMP DP  RH WIND       PRES   REMARKS
LEWISTON       PTCLDY    74  47  38 SW3       29.84R
LOWELL           N/A     62  55  77 CALM      29.90R
COEUR D`ALENE  CLEAR     67  46  47 SW5       29.89R
MULLAN PASS    CLEAR     62  39  42 SW7       30.07S
$$




USA.gov is the U.S. government's official web portal to all federal, state and local government web resources and services.